Location: Mount Cross
(36.6390°N, 79.4878°W)
Time: 12:46:59
(UTC+00:00)

Vanguard 2 - Visible Passes

Search period start: 26 March 2023 00:00
Search period end: 05 April 2023 00:00
Orbit: 553 x 2927 km, 32.9° (Epoch: 25 March)

Date Brightness Start Highest point End Pass type
(mag) Time Alt. Az. Time Alt. Az. Time Alt. Az.
26 Mar 11.6 06:44:09 13° SE 06:45:49 13° SE 06:52:23 10° ESE visible
26 Mar 11.0 08:45:27 21° SSW 08:56:14 38° SSE 09:10:11 10° E visible
27 Mar 11.4 06:59:38 19° SE 07:01:46 19° SE 07:12:17 10° E visible
27 Mar 10.8 09:00:55 22° SSW 09:12:26 46° SSE 09:27:00 10° E visible
28 Mar 11.2 07:15:00 25° SSE 07:17:41 26° SE 07:30:28 10° E visible
28 Mar 10.6 09:16:17 22° SW 09:28:40 54° SSE 09:43:38 10° E visible
29 Mar 10.9 07:30:17 31° SSE 07:33:37 33° SE 07:47:55 10° E visible
29 Mar 10.5 09:31:33 21° SW 09:44:58 61° SSE 10:00:10 10° E visible
30 Mar 11.7 05:44:12 12° ESE 05:44:12 12° ESE 05:46:27 10° ESE visible
30 Mar 10.7 07:45:28 36° S 07:49:35 40° SE 08:04:57 10° E visible
30 Mar 10.5 09:46:44 18° WSW 10:01:21 67° SSE 10:16:37 10° E visible
31 Mar 11.4 05:59:19 18° ESE 05:59:19 18° ESE 06:06:08 10° E visible
31 Mar 10.5 08:00:34 40° S 08:05:39 48° SSE 08:21:43 10° E visible
31 Mar 10.4 10:01:50 15° WSW 10:17:46 73° SSE 10:33:03 10° E visible
01 Apr 11.2 06:14:21 25° ESE 06:14:21 25° ESE 06:24:13 10° E visible
01 Apr 10.4 08:15:36 42° SSW 08:21:46 56° SSE 08:38:20 10° E visible
01 Apr 10.4 10:16:51 11° WSW 10:34:14 76° S 10:49:25 10° E visible
02 Apr 10.9 06:29:19 32° SE 06:29:19 32° SE 06:41:36 10° E visible
02 Apr 10.4 08:30:34 40° SW 08:37:59 63° SSE 08:54:51 10° E visible
02 Apr 10.4 10:32:47 10° W 10:50:43 78° S 11:05:47 10° E visible
03 Apr 10.6 06:44:13 40° SE 06:44:13 40° SE 06:58:35 10° E visible
03 Apr 10.3 08:45:28 37° SW 08:54:17 69° SSE 09:11:18 10° E visible
04 Apr 11.6 04:57:50 11° E 04:57:50 11° E 04:58:53 10° E visible
04 Apr 10.4 06:59:05 48° SE 06:59:05 48° SE 07:15:20 10° E visible
04 Apr 10.3 09:00:19 32° WSW 09:10:38 74° SSE 09:27:44 10° E visible
